Location: Kawakawa
(35.3830°S, 174.0670°E)
Time: 02:46:51
(UTC+13:00)

USA 238 DEB - Pass Details

Date: 24 January 2019
Orbit: 1027 x 1185 km, 63.4° (Epoch: 07 October)

Event Time Altitude Azimuth Distance (km) Brightness Sun altitude
Rises 22:14:01 0° 350° (N) 4,060 6.4 -17.4°
Reaches altitude 10° 22:16:53 10° 356° (N) 3,101 5.8 -17.9°
Maximum altitude 22:23:54 46° 66° (ENE) 1,539 4.1 -19.0°
Drops below altitude 10° 22:30:50 10° 136° (SE) 3,069 6.1 -20.0°
Sets 22:33:38 0° 142° (SE) 4,014 6.8 -20.4°
